Location: Guayaquil
(2.1667°S, 79.9000°W)
Time: 04:18:54
(UTC-05:00)

N. Korean satellite - Visible Passes

Search period start: 17 October 2017 00:00
Search period end: 27 October 2017 00:00
Orbit: 459 x 517 km, 97.2° (Epoch: 16 October)

Date Brightness Start Highest point End Pass type
(mag) Time Alt. Az. Time Alt. Az. Time Alt. Az.
17 Oct 6.7 18:37:16 10° SSE 18:40:53 55° E 18:44:24 10° N visible
19 Oct 9.3 19:24:44 10° SSW 19:27:35 22° WSW 19:30:24 10° NW visible
20 Oct 7.4 19:00:47 10° S 19:04:21 54° W 19:07:50 10° NNW visible
21 Oct 6.6 18:37:29 10° SSE 18:41:04 55° E 18:44:33 10° N visible
23 Oct 9.3 19:24:56 10° SSW 19:27:44 21° WSW 19:30:28 10° NW visible
24 Oct 7.4 19:00:57 10° S 19:04:28 52° WSW 19:07:54 10° NNW visible
25 Oct 6.6 18:37:37 10° SSE 18:41:10 56° E 18:44:37 10° N visible
